weather.gov     
National Weather Service

Terminal Aerodrome Forecast
NWS Homepage
This page is being discontinued on March 12, 2014.
The same data is available at this site. Please update your bookmarks.
Thank you, and we apologize for the inconvenience.
Please send an email to SR-SRH.Webmaster@noaa.gov with any concerns.


Current Version
Previous Version:    01  02  03  04  05  06  07  08  09  10  11  12  13  14  15  16  17  18  19  20  21  22  23  24  25  26  27  28  29  30  
   31  32  33  34  35  36  37  38  39  40  41  
[Printable]
500
FTUS45 KSLC 221120
TAFOGD
TAF
KOGD 221120Z 2212/2312 17009KT P6SM SCT100 BKN130
     FM221600 17010G18KT P6SM VCSH SCT080 BKN100
     FM222000 34010KT P6SM -SHRA BKN050 OVC080
     FM230100 VRB05KT 5SM -RA BR BKN040 OVC060
     FM230500 VRB05KT P6SM -SHRA SCT040 OVC060=


500
FTUS45 KSLC 221120
TAFOGD
TAF
KOGD 221120Z 2212/2312 17009KT P6SM SCT100 BKN130
     FM221600 17010G18KT P6SM VCSH SCT080 BKN100
     FM222000 34010KT P6SM -SHRA BKN050 OVC080
     FM230100 VRB05KT 5SM -RA BR BKN040 OVC060
     FM230500 VRB05KT P6SM -SHRA SCT040 OVC060=




U.S. Dept. of Commerce
NOAA National Weather Service
1325 East West Highway
Silver Spring, MD 20910
E-mail: w-nws.webmaster@noaa.gov
Page last modified: May 16, 2007
NATIONAL WEATHER SERVICE: for Safety, for Work, for Fun - FOR LIFE